Location: Obersdorf
(47.4079°N, 10.2781°E)
Time: 04:49:09
(UTC+02:00)

Nauka - Pass Details

Date: 04 October 2021
Orbit: 417 x 423 km, 51.6° (Epoch: 19 October)

Event Time Altitude Azimuth Distance (km) Brightness Sun altitude
Rises 21:08:36 0° 282° (WNW) 2,364 ? -23.6°
Reaches altitude 10° 21:11:50 10° 248° (WSW) 1,496 ? -24.1°
Maximum altitude 21:13:05 12° 227° (SW) 1,399 ? -24.3°
Enters shadow 21:13:26 12° 220° (SW) 1,407 ? -24.3°
